Location: Newark
(51.0500°N, 12.4500°E)
Time: 11:20:16
(UTC+00:00)

Vanguard 1 - Pass Details

Date: 18 February 2020
Orbit: 649 x 3833 km, 34.2° (Epoch: 07 April)

Event Time Altitude Azimuth Distance (km) Brightness Sun altitude
Rises 11:43:11 0° 258° (WSW) 6,610 14.5 27.1°
Reaches altitude 10° 11:48:57 10° 249° (WSW) 5,022 14.1 27.0°
Maximum altitude 11:59:04 28° 199° (SSW) 2,716 15.0 26.8°
Drops below altitude 10° 12:05:30 10° 143° (SE) 3,093 13.3 26.6°
Sets 12:08:07 0° 131° (SE) 3,751 13.4 26.5°
